Other Public Products
Issued by NWS Grand Forks, ND

Home | Current Version | Previous Version | Text Only | Print | Product List | Glossary Off
Versions: 1 2 3 4 5 6 7 8 9 10 11 12 13 14 15 16 17 18 19 20 21 22 23 24 25 26 27 28 29 30 31 32 33 34 35 36 37 38 39 40 41 42 43 44 45 46 47 48 49 50

000
FPUS83 KFGF 040031
OPUFGF
PRAIRIE TO PINES WEATHER ROUNDUP
NATIONAL WEATHER SERVICE EASTERN NORTH DAKOTA/GRAND FORKS ND
700 PM CDT SUN MAY 03 2015

 **SATELLITE DATA USED TO AUGMENT SKY COVER AT AUTOMATED STATIONS**
 *****  WEATHER ACROSS EASTERN NORTH DAKOTA  *****

CITY           SKY/WX    TMP DP  RH WIND       PRES   REMARKS
GRAND FORKS    MOSUNNY   66  26  22 NW13      29.93R
6HR MIN TEMP:  64; 6HR MAX TEMP:  70;

GRAND FORKS AF SUNNY     66  25  21 N10       29.93S
GRAND CITY NWS   N/A     63 N/A N/A N6          N/A
BUXTON           N/A     68  23  18 CALM        N/A
DEVILS LAKE    MOSUNNY   63  25  23 NW15      29.97R
6HR MIN TEMP:  63; 6HR MAX TEMP:  64;

FARGO          MOSUNNY   67  21  17 NW15      29.92S
6HR MIN TEMP:  63; 6HR MAX TEMP:  72;

WAHPETON ARPT  MOCLDY    66  16  14 N13G18    29.93F
$$

 *****  WEATHER ACROSS CENTRAL AND WESTERN NORTH DAKOTA  *****

CITY           SKY/WX    TMP DP  RH WIND       PRES   REMARKS
JAMESTOWN      MOSUNNY   65  22  19 NW15G22   29.97R
6HR MIN TEMP:  61; 6HR MAX TEMP:  68;

BISMARCK       MOSUNNY   64  20  18 NW13G24   30.02S
6HR MIN TEMP:  64; 6HR MAX TEMP:  68;

MINOT          MOSUNNY   61  23  23 NW20G25   30.00R
6HR MIN TEMP:  60; 6HR MAX TEMP:  64; 6HR PCP: TRACE;

MINOT AFB      MOSUNNY   65  25  22 NW16G24   30.00R
6HR MIN TEMP:  61; 6HR MAX TEMP:  65;

GARRISON         N/A     64  22  20 NW17      30.00S
6HR MIN TEMP:  62; 6HR MAX TEMP:  66;

WILLISTON      LGT RAIN  62  18  18 NW9       30.03R
6HR MIN TEMP:  60; 6HR MAX TEMP:  66; 6HR PCP: TRACE;

DICKINSON      MOSUNNY   61  26  26 N8        30.02S
6HR MIN TEMP:  59; 6HR MAX TEMP:  64;

HETTINGER      SUNNY     64  25  22 NE7       30.03R
6HR MIN TEMP:  55; 6HR MAX TEMP:  66;

$$

 *****  OTHER OBSERVATIONS NORTHEAST NORTH DAKOTA  *****

CITY           SKY/WX    TMP DP  RH WIND       PRES   REMARKS
WALHALLA       FAIR      63  27  25 NW14      29.95R
LANGDON        FAIR      61  27  27 NW16G23   29.96S
CAVALIER       FAIR      64  27  24 NW12      29.94R
GRAFTON        FAIR      64  28  25 NW15      29.94R
CANDO          FAIR      59  25  27 NW14G21   29.98R
FORT TOTTEN      N/A     63  26  24 NW7       29.95
ROLLA          NOT AVBL
RUGBY          NOT AVBL
 ***** THE ABOVE OBSERVATIONS ARE NON NWS ARE NOT QUALITY
        CONTROLLED AND MAY MIS-REPORT RAIN FOR SNOW...
$$

 *****  OTHER OBSERVATIONS SOUTHEAST NORTH DAKOTA *****

CITY           SKY/WX    TMP DP  RH WIND       PRES   REMARKS
COOPERSTOWN    NOT AVBL
VALLEY CITY    FAIR      63  23  22 NW15G21   29.97R
OAKES            N/A     64  23  20 NW16      29.96R
GWINNER        CLEAR     70  25  18 N15       29.96S
SHEYENNE NWR     N/A     70  22  16 N9        29.95S
BUFFALO        NOT AVBL
WYNDMERE       NOT AVBL
 ***** THE ABOVE OBSERVATIONS ARE NON NWS ARE NOT QUALITY
       CONTROLLED AND MAY MIS-REPORT RAIN FOR SNOW...
$$

  *****  WEATHER ACROSS NORTHERN MINNESOTA  *****

CITY           SKY/WX    TMP DP  RH WIND       PRES   REMARKS
FLAG ISLAND    MOSUNNY   55  37  50 NW24      29.91R
WARROAD        MOSUNNY   59  37  44 NW16G22   29.92R
ROSEAU         MOSUNNY   61  34  36 NW18G28   29.92R
HALLOCK        MOSUNNY   64  27  24 N16       29.93R
THF RVR FALLS  MOSUNNY   64  25  22 NW17      29.93R
6HR MIN TEMP:  61; 6HR MAX TEMP:  66;

HALSTAD          N/A     68  19  15 N17         N/A
FOSSTON        NOT AVBL
BAUDETTE       MOSUNNY   59  34  39 NW18      29.89R
6HR MIN TEMP:  59; 6HR MAX TEMP:  67;

WASKISH        SUNNY     63  36  36 NW14      29.90R
CROOKSTON      SUNNY     66  27  22 NW10G18   29.93S
$$
  *****  WEATHER ACROSS CENTRAL AND WEST MINNESOTA  *****

CITY           SKY/WX    TMP DP  RH WIND       PRES   REMARKS
BEMIDJI        SUNNY     62  26  24 NW12      29.90S
PARK RAPIDS    SUNNY     67  21  17 NW12      29.90S
6HR MIN TEMP:  64; 6HR MAX TEMP:  69;

WADENA         MOSUNNY   63  32  31 NW9       29.91S
DETROIT LAKES  SUNNY     64  21  19 NW14      29.93S
MOORHEAD       MOSUNNY   66  19  16 NW16      29.93S
FERGUS FALLS   MOSUNNY   64  34  32 NW6       29.93F
ELBOW LAKE     FAIR      63  31  30 N10       29.93F
6HR MIN TEMP:  63; 6HR MAX TEMP:  68;

MORRIS MN      MOSUNNY   66  25  20 N18G25    29.91F
STAPLES        MOSUNNY   64  23  20 NW14      29.90R
WHEATON        PTSUNNY   63  30  29 N8        29.94F
$$
  *****  WEATHER ELSEWHERE ACROSS MINNESOTA  *****

CITY           SKY/WX    TMP DP  RH WIND       PRES   REMARKS
DULUTH         CLOUDY    65  40  39 W6        29.84F
6HR MIN TEMP:  60; 6HR MAX TEMP:  77; 6HR PCP:  0.01;

INTRNTL FALLS  SUNNY     63  27  25 NW14      29.86R
6HR MIN TEMP:  63; 6HR MAX TEMP:  66;

ELY            PTSUNNY   64  21  19 W12G17    29.84R
CLOQUET        CLOUDY    64  39  39 CALM      29.84S
BRAINERD       SUNNY     67  35  30 N10       29.87S
6HR MIN TEMP:  60; 6HR MAX TEMP:  71; 6HR PCP: TRACE;

HIBBING        PTSUNNY   65  27  23 NW9       29.86S
6HR MIN TEMP:  64; 6HR MAX TEMP:  77; 6HR PCP: TRACE;

ALEXANDRIA     PTSUNNY   64  29  26 NW12      29.93R
6HR MIN TEMP:  64; 6HR MAX TEMP:  69;

SAINT CLOUD    MOSUNNY   68  40  35 N6        29.84F
6HR MIN TEMP:  64; 6HR MAX TEMP:  79; 6HR PCP: TRACE;

MINNEAPOLIS    TSTM      65  53  65 VRB7      29.82F
6HR MIN TEMP:  62; 6HR MAX TEMP:  83; 6HR PCP:  0.01;

$$

  *****  WEATHER ACROSS SOUTH DAKOTA  *****

CITY           SKY/WX    TMP DP  RH WIND       PRES   REMARKS
SIOUX FALLS    PTSUNNY   67  40  37 N18G28    29.85R
6HR MIN TEMP:  66; 6HR MAX TEMP:  83;

BROOKINGS      MOSUNNY   68  36  30 N22G30    29.89R
WATERTOWN      MOSUNNY   66  33  29 N17G26    29.93S
6HR MIN TEMP:  65; 6HR MAX TEMP:  73;

HURON          SUNNY     70  35  27 NE18G25   29.92R
6HR MIN TEMP:  69; 6HR MAX TEMP:  75;

SISSETON         N/A     67  27  22 N15       29.93F
ABERDEEN       MOSUNNY   69  23  17 N16       29.96S
6HR MIN TEMP:  66; 6HR MAX TEMP:  71;

MITCHELL       MOSUNNY   73  37  27 N23       29.89R
PIERRE         SUNNY     70  27  20 NE13      29.96R
6HR MIN TEMP:  70; 6HR MAX TEMP:  75;

MOBRIDGE       PTSUNNY   67  26  21 N9        29.97S
RAPID CITY     MOSUNNY   64  36  35 NE15      30.02R
6HR MIN TEMP:  64; 6HR MAX TEMP:  69;

$$

  *****  SOME WEATHER IN NEARBY STATES *****

CITY           SKY/WX    TMP DP  RH WIND       PRES   REMARKS
GLASGOW MT     PTSUNNY   61  23  23 CALM      30.03S
6HR MIN TEMP:  54; 6HR MAX TEMP:  63;

GREAT FALLS MT SUNNY     64  21  19 E10       29.93F
6HR MIN TEMP:  54; 6HR MAX TEMP:  65;

CHEYENNE WY    CLOUDY    52  44  74 E8        30.06R
6HR MIN TEMP:  50; 6HR MAX TEMP:  68; 6HR PCP:  0.17;

SCOTTSBLUFF NE CLOUDY    68  38  33 E15G23    29.98S
6HR MIN TEMP:  67; 6HR MAX TEMP:  72;

OMAHA NE       CLOUDY    77  59  53 S7        29.73R
6HR MIN TEMP:  77; 6HR MAX TEMP:  82;

DES MOINES IA  PTSUNNY   80  57  45 S9        29.77F
6HR MIN TEMP:  79; 6HR MAX TEMP:  85;

DAVENPORT IA   MOSUNNY   80  54  40 S15G22    29.84F
6HR MIN TEMP:  66; 6HR MAX TEMP:  83; 6HR PCP:  0.01;

CHICAGO IL     RAIN      63  59  87 NW12      29.96R FOG
6HR MIN TEMP:  63; 6HR MAX TEMP:  78; 6HR PCP:  0.10;

EAU CLAIRE WI  TSTM      60  57  89 NW24G44   29.87R VSB 3/4
6HR MIN TEMP:  74; 6HR MAX TEMP:  81; 6HR PCP: TRACE;

LA CROSSE WI   MOSUNNY   81  55  40 S13       29.73S
6HR MIN TEMP:  77; 6HR MAX TEMP:  85;

$$

  *****  SOME NATIONAL WEATHER *****

CITY           SKY/WX    TMP DP  RH WIND       PRES   REMARKS


USA.gov is the U.S. government's official web portal to all federal, state and local government web resources and services.